Content
SEND FEEDBACK

Daily
Averages
Monthly
Summary
Madagascar

TOAMASINA, MADAGASCAR


Home > Africa > Madagascar
Elevation: 16 feet     Latitude: 18 07S     Longitude: 049 23E

WEATHER
 
SELECT A DAY
Number of Records: 138,619;   Date Range: 10/29/96 - 12/20/14
 
SHARE

PRINT THIS DATA

[ ← Previous Day ]
WEATHER ALMANAC - JANUARY 31, 2013
[ Next Day → ]
[ °C ]   °F
Weather ElementAverageHighLow
Temperature79.6 °F84.2 °F (8:00 pm)77 °F (3:00 am)
Dewpoint75.7 °F78.8 °F (11:00 am)73.4 °F (5:00 pm)
Humidity88 %100 % (3:00 am)70 % (8:00 pm)
Barometer29.61 in (7:00 pm)29.47 in (5:00 am)
Wind Speed21.2 mph27.6 mph (7:00 am)
Wind Gust46 mph (7:00 am)
Weather ElementAverage
Visibility5.1 mi
Wind DirectionWSW (235.6 °)

Weather ElementTotal
Precipitation---
Cooling Degree Days15.6 (Base 65)
Growing Degree Days30.6 (Base 50)
Averaged from 27 records on January 31, 2013
WEATHER CONDITIONS BREAKOUT
WIND DIRECTION BREAKOUT
WEATHER BY HOUR - JANUARY 31, 2013
[ °C ]   °F
Local TimeTemperatureDewpointHumidityBarometerVisibilityWind DirectionWind SpeedGust SpeedPrecipitationEventsConditions
1:00 AM80.6 °F77.0 °F89 %29.50 in6.2 miSouth (180°)23.0 mphMostly Cloudy
2:00 AM78.8 °F77.0 °F94 %29.50 in5.0 miSouth (180°)23.0 mphRainLight Rain
3:00 AM78.0 °F76.0 °F93 %5.0 miSouth (180°)26.5 mphRainLight Rain
3:00 AM77.0 °F77.0 °F100 %29.50 in5.0 miSouth (180°)26.5 mphRainLight Rain
4:00 AM78.8 °F77.0 °F94 %29.50 in6.2 miSSW (200°)23.0 mphMostly Cloudy
5:00 AM77.0 °F77.0 °F100 %29.47 in5.0 miSSW (200°)25.3 mphRainLight Rain
6:00 AM77.0 °F77.0 °F100 %29.47 in5.0 miSW (220°)25.3 mphRainLight Rain
7:00 AM77.0 °F75.2 °F94 %29.50 in3.1 miWSW (240°)27.6 mph46.0 mphRainLight Rain
8:00 AM78.8 °F75.2 °F89 %29.47 in3.1 miSW (220°)27.6 mphRainLight Rain
9:00 AM78.0 °F77.0 °F96 %29.48 in3.0 miSW (220°)24.2 mphRainLight Rain
9:00 AM77.0 °F77.0 °F100 %29.47 in3.1 miSW (220°)24.2 mphRainLight Rain
10:00 AM78.8 °F77.0 °F94 %29.47 in5.0 miSW (220°)26.5 mphMostly Cloudy
11:00 AM80.6 °F78.8 °F94 %29.47 in6.2 miWSW (240°)26.5 mphMostly Cloudy
12:00 PM78.8 °F77.0 °F94 %29.47 in5.0 miSW (220°)21.9 mph35.7 mphMostly Cloudy
1:00 PM78.8 °F77.0 °F94 %29.50 in5.0 miSW (220°)21.9 mph35.7 mphMostly Cloudy
2:00 PM77.0 °F77.0 °F100 %29.47 in1.9 miSW (220°)21.9 mph35.7 mphRainRain
3:00 PM80.0 °F76.0 °F83 %29.50 in5.0 miSW (220°)21.9 mphRainLight Rain
3:00 PM80.6 °F75.2 °F84 %29.47 in5.0 miSW (220°)21.9 mph35.7 mphMostly Cloudy
4:00 PM80.6 °F75.2 °F84 %29.47 in5.0 miWest (260°)18.4 mph34.5 mphMostly Cloudy
5:00 PM82.4 °F73.4 °F74 %29.50 in5.0 miWest (260°)18.4 mph34.5 mphMostly Cloudy
6:00 PM82.4 °F73.4 °F74 %29.50 in6.2 miWest (260°)18.4 mph34.5 mphMostly Cloudy
7:00 PM82.4 °F73.4 °F74 %29.53 in6.2 miWest (280°)16.1 mph28.8 mphMostly Cloudy
8:00 PM84.2 °F73.4 °F70 %29.56 in6.2 miWest (280°)18.4 mph34.5 mphMostly Cloudy
9:00 PM82.0 °F74.0 °F71 %29.58 in9.0 miWNW (300°)18.4 mphMostly Cloudy
9:00 PM82.4 °F73.4 °F74 %29.56 in6.2 miWNW (300°)18.4 mphMostly Cloudy
10:00 PM80.6 °F75.2 °F84 %29.59 in6.2 miWest (280°)4.6 mphMostly Cloudy
11:00 PM80.6 °F73.4 °F79 %29.59 in6.2 miNNW (340°)2.3 mphMostly Cloudy
Hourly data recorded from FMMT, located miles away from Toamasina, Madagascar







STORIES FROM OUR PARTNERS